,,PA_Meas_PMT16A,,PR_Meas_QMR101_102,,RH_Meas_QMH101,,SR_Meas_QMS101,,TA_Meas_QMH101,,GenWind,,GenWind,
time,status,PA,status,PR,status,RH,status,SR,status,TA,status,DirAvg,status,SpdAvg,
2010-01-15, 00:00:05,VALID,921.388,VALID,0,VALID,92.5178,VALID,0,VALID,20.0898,VALID,144,VALID,0.882813,
2010-01-15, 00:01:05,VALID,921.394,VALID,0,VALID,92.4492,VALID,0,VALID,20.0913,VALID,120,VALID,1.30898,
2010-01-15, 00:02:05,VALID,921.355,VALID,0,VALID,92.4034,VALID,0,VALID,20.0898,VALID,123,VALID,1.29805,
2010-01-15, 00:03:05,VALID,921.315,VALID,0,VALID,92.4187,VALID,0,VALID,20.0703,VALID,120,VALID,1.24297,
2010-01-15, 00:04:05,VALID,921.319,VALID,0,VALID,92.2967,VALID,0,VALID,20.0703,VALID,131,VALID,1.91055,
2010-01-15, 00:05:05,VALID,921.313,VALID,0,VALID,92.3348,VALID,0,VALID,20.1093,VALID,140,VALID,0.733203,
2010-01-15, 00:06:05,VALID,921.293,VALID,0,VALID,92.3196,VALID,0,VALID,20.0688,VALID,160,VALID,1.16484,
2010-01-15, 00:07:05,VALID,921.292,VALID,0,VALID,92.4949,VALID,0,VALID,20.0703,VALID,176,VALID,1.34063,
2010-01-15, 00:08:05,VALID,921.298,VALID,0,VALID,92.5102,VALID,0.107441,VALID,20.0508,VALID,127,VALID,1.3418,
2010-01-15, 00:09:05,VALID,921.255,VALID,0,VALID,92.5559,VALID,0.107441,VALID,20.0718,VALID,135,VALID,0.909766,
2010-01-15, 00:10:05,VALID,921.259,VALID,0,VALID,92.594,VALID,0.107441,VALID,20.0508,VALID,136,VALID,1.13984,
2010-01-15, 00:11:05,VALID,921.234,VALID,0,VALID,92.6093,VALID,0,VALID,19.9923,VALID,136,VALID,1.02578,
2010-01-15, 00:12:05,VALID,921.246,VALID,0,VALID,92.7617,VALID,0.107441,VALID,19.9713,VALID,136,VALID,1.44258,
2010-01-15, 00:13:05,VALID,921.252,VALID,0,VALID,92.8837,VALID,0,VALID,19.9533,VALID,136,VALID,1.18242,
2010-01-15, 00:14:05,VALID,921.231,VALID,0,VALID,92.9676,VALID,0,VALID,19.9143,VALID,136,VALID,1.3293,
2010-01-15, 00:15:05,VALID,921.24,VALID,0,VALID,92.8685,VALID,0,VALID,19.9353,VALID,136,VALID,1.03516,
2010-01-15, 00:16:05,VALID,921.193,VALID,0,VALID,92.4263,VALID,0,VALID,19.9338,VALID,136,VALID,1.44883,
2010-01-15, 00:17:05,VALID,921.185,VALID,0,VALID,92.5025,VALID,0,VALID,19.9728,VALID,136,VALID,0.584375,
2010-01-15, 00:18:05,VALID,921.21,VALID,0,VALID,92.4644,VALID,0,VALID,19.9728,VALID,136,VALID,1.16523,
2010-01-15, 00:19:05,VALID,921.176,VALID,0,VALID,92.4492,VALID,0,VALID,19.9533,VALID,135,VALID,1.10469,
2010-01-15, 00:20:05,VALID,921.176,VALID,0,VALID,92.3348,VALID,0,VALID,19.9728,VALID,128,VALID,0.751172,
2010-01-15, 00:21:05,VALID,921.153,VALID,0,VALID,92.2662,VALID,0,VALID,19.9938,VALID,119,VALID,1.33438,
2010-01-15, 00:22:05,VALID,921.176,VALID,0,VALID,92.4644,VALID,0,VALID,19.9743,VALID,118,VALID,1.03906,
2010-01-15, 00:23:05,VALID,921.158,VALID,0,VALID,92.6169,VALID,0,VALID,19.9143,VALID,118,VALID,0.858984,
2010-01-15, 00:24:05,VALID,921.14,VALID,0,VALID,92.4797,VALID,0,VALID,19.9338,VALID,136,VALID,1.27852,
2010-01-15, 00:25:05,VALID,921.173,VALID,0,VALID,92.3501,VALID,0,VALID,19.9158,VALID,118,VALID,0.747266,
2010-01-15, 00:26:05,VALID,921.161,VALID,0,VALID,92.4415,VALID,0,VALID,19.8753,VALID,118,VALID,0.825391,
2010-01-15, 00:27:05,VALID,921.157,VALID,0,VALID,92.7084,VALID,0,VALID,19.8573,VALID,118,VALID,0.889063,
2010-01-15, 00:28:05,VALID,921.148,VALID,0,VALID,92.6169,VALID,0,VALID,19.7973,VALID,118,VALID,1.3043,
2010-01-15, 00:29:05,VALID,921.136,VALID,0,VALID,92.3882,VALID,0,VALID,19.8363,VALID,118,VALID,0.71875,
2010-01-15, 00:30:05,VALID,921.128,VALID,0,VALID,92.1595,VALID,0,VALID,19.8378,VALID,117,VALID,0.991797,
2010-01-15, 00:31:05,VALID,921.08,VALID,0,VALID,91.824,VALID,0,VALID,19.8558,VALID,117,VALID,1.11523,
2010-01-15, 00:32:05,VALID,921.091,VALID,0,VALID,91.6487,VALID,0,VALID,19.8948,VALID,117,VALID,1.03242,
2010-01-15, 00:33:05,VALID,921.087,VALID,0,VALID,91.3895,VALID,0,VALID,19.9548,VALID,117,VALID,0.957422,
2010-01-15, 00:34:05,VALID,921.072,VALID,0,VALID,91.2142,VALID,0,VALID,19.9728,VALID,118,VALID,1.03906,
2010-01-15, 00:35:05,VALID,921.072,VALID,0,VALID,90.9855,VALID,0,VALID,19.9938,VALID,117,VALID,1.34141,
2010-01-15, 00:36:05,VALID,921.049,VALID,0,VALID,91.0312,VALID,0,VALID,19.9533,VALID,117,VALID,0.943359,
2010-01-15, 00:37:05,VALID,921.044,VALID,0,VALID,91.0312,VALID,0.107441,VALID,19.9128,VALID,145,VALID,1.21445,
2010-01-15, 00:38:05,VALID,921.039,VALID,0,VALID,91.1684,VALID,0,VALID,19.8753,VALID,144,VALID,1.56094,
2010-01-15, 00:39:05,VALID,921.02,VALID,0,VALID,91.3133,VALID,0,VALID,19.8963,VALID,137,VALID,1.25352,
2010-01-15, 00:40:05,VALID,920.965,VALID,0,VALID,91.2904,VALID,0,VALID,19.8753,VALID,132,VALID,0.994531,
2010-01-15, 00:41:05,VALID,920.99,VALID,0,VALID,91.359,VALID,0,VALID,19.8768,VALID,132,VALID,1.05078,
2010-01-15, 00:42:05,VALID,920.978,VALID,0,VALID,91.3743,VALID,0,VALID,19.8558,VALID,130,VALID,1.40273,
2010-01-15, 00:43:05,VALID,920.999,VALID,0,VALID,91.3666,VALID,0,VALID,19.8963,VALID,124,VALID,1.2293,
2010-01-15, 00:44:05,VALID,920.974,VALID,0,VALID,91.4429,VALID,0,VALID,19.8558,VALID,134,VALID,1.12461,
2010-01-15, 00:45:05,VALID,920.963,VALID,0,VALID,91.4962,VALID,0,VALID,19.8558,VALID,116,VALID,1.50977,
2010-01-15, 00:46:05,VALID,920.939,VALID,0,VALID,91.4048,VALID,0.107441,VALID,19.8738,VALID,157,VALID,1.01523,
2010-01-15, 00:47:05,VALID,920.902,VALID,0,VALID,91.3057,VALID,0,VALID,19.9158,VALID,109,VALID,0.994141,
2010-01-15, 00:48:05,VALID,920.906,VALID,0,VALID,91.2675,VALID,0,VALID,19.8738,VALID,101,VALID,0.968359,
2010-01-15, 00:49:05,VALID,920.878,VALID,0,VALID,91.2675,VALID,0.107441,VALID,19.8963,VALID,101,VALID,0.577344,
2010-01-15, 00:50:05,VALID,920.881,VALID,0,VALID,91.3209,VALID,0,VALID,19.8753,VALID,101,VALID,0.955078,
2010-01-15, 00:51:05,VALID,920.856,VALID,0,VALID,91.4048,VALID,0,VALID,19.8558,VALID,101,VALID,1.09258,
2010-01-15, 00:52:05,VALID,920.891,VALID,0,VALID,91.4734,VALID,0,VALID,19.8363,VALID,101,VALID,1.10664,
2010-01-15, 00:53:05,VALID,920.862,VALID,0,VALID,91.42,VALID,0,VALID,19.8363,VALID,101,VALID,0.786328,
2010-01-15, 00:54:05,VALID,920.869,VALID,0,VALID,91.3819,VALID,0,VALID,19.8753,VALID,164,VALID,1.42188,
2010-01-15, 00:55:05,VALID,920.846,VALID,0,VALID,91.2599,VALID,0,VALID,19.9548,VALID,155,VALID,0.780859,
2010-01-15, 00:56:05,VALID,920.813,VALID,0,VALID,91.2294,VALID,0,VALID,19.9143,VALID,154,VALID,1.63359,
2010-01-15, 00:57:05,VALID,920.81,VALID,0,VALID,91.3514,VALID,0,VALID,19.9143,VALID,170,VALID,1.54102,
2010-01-15, 00:58:05,VALID,920.811,VALID,0,VALID,91.8012,VALID,0,VALID,19.8948,VALID,177,VALID,2.32461,
2010-01-15, 00:59:05,VALID,920.759,VALID,0,VALID,91.9994,VALID,0,VALID,19.8768,VALID,183,VALID,1.0918,
2010-01-15, 01:00:05,VALID,920.756,VALID,0,VALID,92.1595,VALID,0,VALID,19.8363,VALID,152,VALID,1.38008,
2010-01-15, 01:01:05,VALID,920.737,VALID,0,VALID,92.3272,VALID,0,VALID,19.7778,VALID,164,VALID,1.58906,
2010-01-15, 01:02:05,VALID,920.697,VALID,0,VALID,92.4568,VALID,0,VALID,19.7388,VALID,190,VALID,1.25664,
2010-01-15, 01:03:05,VALID,920.661,VALID,0,VALID,92.7007,VALID,0,VALID,19.7193,VALID,201,VALID,1.38945,
2010-01-15, 01:04:05,VALID,920.667,VALID,0,VALID,92.8075,VALID,0,VALID,19.7208,VALID,178,VALID,1.51328,
2010-01-15, 01:05:05,VALID,920.616,VALID,0,VALID,92.8303,VALID,0,VALID,19.7013,VALID,132,VALID,1.22383,
2010-01-15, 01:06:05,VALID,920.61,VALID,0,VALID,93.1276,VALID,0,VALID,19.6818,VALID,161,VALID,1.65742,
2010-01-15, 01:07:05,VALID,920.595,VALID,0,VALID,93.303,VALID,0,VALID,19.6428,VALID,148,VALID,1.69414,
2010-01-15, 01:08:05,VALID,920.578,VALID,0,VALID,93.3945,VALID,0,VALID,19.6218,VALID,172,VALID,0.971875,
2010-01-15, 01:09:05,VALID,920.572,VALID,0,VALID,93.3868,VALID,0,VALID,19.6233,VALID,144,VALID,1.27188,
2010-01-15, 01:10:05,VALID,920.55,VALID,0,VALID,93.4555,VALID,0,VALID,19.6038,VALID,149,VALID,1.34883,
2010-01-15, 01:11:05,VALID,920.534,VALID,0,VALID,93.4326,VALID,0,VALID,19.6023,VALID,155,VALID,1.60039,
2010-01-15, 01:12:05,VALID,920.514,VALID,0,VALID,93.4097,VALID,0,VALID,19.6023,VALID,142,VALID,1.50234,
2010-01-15, 01:13:05,VALID,920.517,VALID,0,VALID,93.4021,VALID,0,VALID,19.6023,VALID,134,VALID,1.26406,
2010-01-15, 01:14:05,VALID,920.479,VALID,0,VALID,93.5622,VALID,0,VALID,19.5843,VALID,129,VALID,1.64414,
2010-01-15, 01:15:05,VALID,920.473,VALID,0,VALID,93.707,VALID,0,VALID,19.5648,VALID,126,VALID,1.0125,
2010-01-15, 01:16:05,VALID,920.461,VALID,0,VALID,93.6918,VALID,0,VALID,19.5243,VALID,111,VALID,1.09063,
2010-01-15, 01:17:05,VALID,920.464,VALID,0,VALID,93.9815,VALID,0,VALID,19.5063,VALID,111,VALID,1.20156,
2010-01-15, 01:18:05,VALID,920.42,VALID,0,VALID,93.9967,VALID,0,VALID,19.4853,VALID,146,VALID,0.989844,
2010-01-15, 01:19:05,VALID,920.447,VALID,0,VALID,94.1492,VALID,0,VALID,19.4658,VALID,157,VALID,0.967969,
2010-01-15, 01:20:05,VALID,920.461,VALID,0,VALID,94.2635,VALID,0,VALID,19.4463,VALID,173,VALID,1.40039,
2010-01-15, 01:21:05,VALID,920.443,VALID,0,VALID,94.4084,VALID,0,VALID,19.4658,VALID,134,VALID,1.01055,
2010-01-15, 01:22:05,VALID,920.405,VALID,0,VALID,94.416,VALID,0,VALID,19.4478,VALID,134,VALID,0.849609,
2010-01-15, 01:23:05,VALID,920.39,VALID,0,VALID,94.477,VALID,0,VALID,19.4074,VALID,134,VALID,0.646094,
2010-01-15, 01:24:05,VALID,920.406,VALID,0,VALID,94.4846,VALID,0,VALID,19.4088,VALID,134,VALID,0.641406,
2010-01-15, 01:25:05,VALID,920.378,VALID,0,VALID,94.5913,VALID,0,VALID,19.4088,VALID,134,VALID,1.11797,
2010-01-15, 01:26:05,VALID,920.366,VALID,0,VALID,94.5151,VALID,0,VALID,19.3879,VALID,144,VALID,1.2625,
2010-01-15, 01:27:05,VALID,920.346,VALID,0,VALID,94.6828,VALID,0,VALID,19.3684,VALID,155,VALID,1.55195,
2010-01-15, 01:28:05,VALID,920.324,VALID,0,VALID,94.6447,VALID,0,VALID,19.3489,VALID,159,VALID,0.93125,
2010-01-15, 01:29:05,VALID,920.341,VALID,0,VALID,94.6828,VALID,0,VALID,19.3294,VALID,160,VALID,1.01523,
2010-01-15, 01:30:05,VALID,920.298,VALID,0,VALID,94.8582,VALID,0,VALID,19.3489,VALID,130,VALID,1.49727,
2010-01-15, 01:31:05,VALID,920.283,VALID,0,VALID,94.8277,VALID,0,VALID,19.3698,VALID,130,VALID,0.817187,
2010-01-15, 01:32:04,VALID,920.272,VALID,0,VALID,94.7514,VALID,0,VALID,19.3698,VALID,130,VALID,0.607813,
2010-01-15, 01:33:04,VALID,920.27,VALID,0,VALID,94.7819,VALID,0,VALID,19.3294,VALID,142,VALID,1.34961,
2010-01-15, 01:34:04,VALID,920.218,VALID,0,VALID,94.6142,VALID,0,VALID,19.3698,VALID,157,VALID,1.2125,
2010-01-15, 01:35:04,VALID,920.204,VALID,0,VALID,94.538,VALID,0,VALID,19.3684,VALID,142,VALID,1.40586,
2010-01-15, 01:36:04,VALID,920.158,VALID,0,VALID,94.4084,VALID,0,VALID,19.3879,VALID,132,VALID,0.973437,
2010-01-15, 01:37:04,VALID,920.181,VALID,0,VALID,94.1034,VALID,0,VALID,19.3879,VALID,170,VALID,2.13477,
2010-01-15, 01:38:04,VALID,920.198,VALID,0,VALID,93.9129,VALID,0,VALID,19.4463,VALID,127,VALID,0.9,
2010-01-15, 01:39:04,VALID,920.236,VALID,0,VALID,93.6537,VALID,0,VALID,19.4868,VALID,148,VALID,1.49531,
2010-01-15, 01:40:04,VALID,920.182,VALID,0,VALID,93.3106,VALID,0,VALID,19.5063,VALID,124,VALID,0.750391,
2010-01-15, 01:41:04,VALID,920.188,VALID,0,VALID,92.6626,VALID,0,VALID,19.5633,VALID,143,VALID,0.850781,
2010-01-15, 01:42:04,VALID,920.192,VALID,0,VALID,92.4644,VALID,0,VALID,19.6218,VALID,166,VALID,1.68477,
2010-01-15, 01:43:04,VALID,920.182,VALID,0,VALID,92.4263,VALID,0,VALID,19.6023,VALID,165,VALID,0.475391,
2010-01-15, 01:44:04,VALID,920.181,VALID,0,VALID,92.533,VALID,0,VALID,19.6038,VALID,154,VALID,1.26719,
2010-01-15, 01:45:04,VALID,920.184,VALID,0,VALID,92.655,VALID,0,VALID,19.5828,VALID,169,VALID,1.20273,
2010-01-15, 01:46:04,VALID,920.177,VALID,0,VALID,92.7465,VALID,0,VALID,19.6038,VALID,147,VALID,1.29883,
2010-01-15, 01:47:04,VALID,920.207,VALID,0,VALID,92.8075,VALID,0,VALID,19.5828,VALID,161,VALID,1.21523,
2010-01-15, 01:48:04,VALID,920.211,VALID,0,VALID,92.9447,VALID,0,VALID,19.5438,VALID,163,VALID,0.916406,
2010-01-15, 01:49:04,VALID,920.166,VALID,0,VALID,93.0819,VALID,0,VALID,19.5438,VALID,166,VALID,0.920703,
2010-01-15, 01:50:04,VALID,920.141,VALID,0,VALID,93.242,VALID,0,VALID,19.5258,VALID,187,VALID,1.1082,
2010-01-15, 01:51:04,VALID,920.128,VALID,0,VALID,93.3411,VALID,0,VALID,19.4853,VALID,187,VALID,0.657422,
2010-01-15, 01:52:04,VALID,920.112,VALID,0,VALID,93.4326,VALID,0,VALID,19.4658,VALID,187,VALID,0.714453,
2010-01-15, 01:53:04,VALID,920.107,VALID,0,VALID,93.4631,VALID,0,VALID,19.4268,VALID,167,VALID,1.74492,
2010-01-15, 01:54:04,VALID,920.061,VALID,0,VALID,93.425,VALID,0,VALID,19.4283,VALID,139,VALID,1.15117,
2010-01-15, 01:55:04,VALID,920.084,VALID,0,VALID,93.1886,VALID,0,VALID,19.3879,VALID,137,VALID,2.10313,
2010-01-15, 01:56:04,VALID,920.029,VALID,0,VALID,92.8227,VALID,0,VALID,19.4853,VALID,175,VALID,1.18984,
2010-01-15, 01:57:04,VALID,920.027,VALID,0,VALID,92.7922,VALID,0,VALID,19.5453,VALID,133,VALID,1.45898,
2010-01-15, 01:58:04,VALID,920.011,VALID,0,VALID,92.9523,VALID,0,VALID,19.5048,VALID,157,VALID,1.39883,
2010-01-15, 01:59:04,VALID,919.999,VALID,0,VALID,93.0667,VALID,0,VALID,19.4853,VALID,132,VALID,1.52422,
2010-01-15, 02:00:04,VALID,919.978,VALID,0,VALID,93.1886,VALID,0,VALID,19.4658,VALID,140,VALID,1.27227,
2010-01-15, 02:01:04,VALID,919.944,VALID,0,VALID,93.3411,VALID,0,VALID,19.4868,VALID,127,VALID,0.8125,
2010-01-15, 02:02:04,VALID,919.937,VALID,0,VALID,93.4021,VALID,0,VALID,19.4463,VALID,127,VALID,0.871875,
2010-01-15, 02:03:04,VALID,919.92,VALID,0,VALID,93.4021,VALID,0,VALID,19.4268,VALID,155,VALID,1.41758,
2010-01-15, 02:04:04,VALID,919.906,VALID,0,VALID,93.3716,VALID,0,VALID,19.4268,VALID,126,VALID,1.7207,
2010-01-15, 02:05:04,VALID,919.905,VALID,0,VALID,93.4631,VALID,0,VALID,19.4478,VALID,135,VALID,1.2793,
2010-01-15, 02:06:04,VALID,919.901,VALID,0,VALID,93.5774,VALID,0.107441,VALID,19.4283,VALID,142,VALID,1.67734,
2010-01-15, 02:07:04,VALID,919.9,VALID,0,VALID,93.6689,VALID,0,VALID,19.3879,VALID,155,VALID,1.47656,
2010-01-15, 02:08:04,VALID,919.871,VALID,0,VALID,93.7604,VALID,0,VALID,19.3684,VALID,131,VALID,1.74648,
2010-01-15, 02:09:04,VALID,919.843,VALID,0,VALID,93.8976,VALID,0,VALID,19.3489,VALID,144,VALID,1.46328,
2010-01-15, 02:10:04,VALID,919.821,VALID,0,VALID,94.0882,VALID,0.107441,VALID,19.3503,VALID,126,VALID,1.49336,
2010-01-15, 02:11:04,VALID,919.773,VALID,0,VALID,94.1492,VALID,0.107441,VALID,19.2904,VALID,138,VALID,1.28359,
2010-01-15, 02:12:04,VALID,919.802,VALID,0,VALID,94.3855,VALID,0.107441,VALID,19.2709,VALID,122,VALID,2.04609,
2010-01-15, 02:13:04,VALID,919.767,VALID,0,VALID,94.4999,VALID,0,VALID,19.2304,VALID,125,VALID,1.58711,
2010-01-15, 02:14:04,VALID,919.795,VALID,0,VALID,94.4999,VALID,0,VALID,19.2528,VALID,125,VALID,0.90625,
2010-01-15, 02:15:04,VALID,919.765,VALID,0,VALID,94.4389,VALID,0,VALID,19.2334,VALID,125,VALID,0.981641,
2010-01-15, 02:16:04,VALID,919.774,VALID,0,VALID,94.5837,VALID,0,VALID,19.2124,VALID,110,VALID,1.29922,
2010-01-15, 02:17:04,VALID,919.758,VALID,0,VALID,94.6142,VALID,0,VALID,19.2139,VALID,121,VALID,1.47344,
2010-01-15, 02:18:04,VALID,919.763,VALID,0,VALID,94.66,VALID,0,VALID,19.2139,VALID,130,VALID,1.14766,
2010-01-15, 02:19:04,VALID,919.764,VALID,0,VALID,94.66,VALID,0,VALID,19.1929,VALID,138,VALID,1.68203,
2010-01-15, 02:20:04,VALID,919.747,VALID,0,VALID,94.7743,VALID,0,VALID,19.1734,VALID,124,VALID,1.41133,
2010-01-15, 02:21:04,VALID,919.753,VALID,0,VALID,94.8048,VALID,0,VALID,19.2139,VALID,145,VALID,1.41953,
2010-01-15, 02:22:04,VALID,919.737,VALID,0,VALID,94.7286,VALID,0,VALID,19.2124,VALID,148,VALID,1.53398,
2010-01-15, 02:23:04,VALID,919.737,VALID,0,VALID,94.6523,VALID,0,VALID,19.2334,VALID,152,VALID,1.37852,
2010-01-15, 02:24:04,VALID,919.721,VALID,0,VALID,94.6523,VALID,0,VALID,19.2334,VALID,123,VALID,1.30781,
2010-01-15, 02:25:04,VALID,919.719,VALID,0,VALID,94.599,VALID,0,VALID,19.2334,VALID,115,VALID,1.36953,
2010-01-15, 02:26:04,VALID,919.729,VALID,0,VALID,94.6447,VALID,0,VALID,19.2334,VALID,114,VALID,1.6582,
2010-01-15, 02:27:04,VALID,919.704,VALID,0,VALID,94.5075,VALID,0,VALID,19.2124,VALID,113,VALID,1.69453,
2010-01-15, 02:28:04,VALID,919.678,VALID,0,VALID,94.3626,VALID,0,VALID,19.2319,VALID,121,VALID,1.51719,
2010-01-15, 02:29:04,VALID,919.625,VALID,0,VALID,94.2864,VALID,0,VALID,19.2528,VALID,145,VALID,1.19453,
2010-01-15, 02:30:04,VALID,919.614,VALID,0,VALID,94.2788,VALID,0,VALID,19.2514,VALID,125,VALID,1.17969,
2010-01-15, 02:31:04,VALID,919.581,VALID,0,VALID,94.1797,VALID,0,VALID,19.2514,VALID,148,VALID,1.68867,
2010-01-15, 02:32:04,VALID,919.578,VALID,0,VALID,94.1416,VALID,0,VALID,19.2514,VALID,106,VALID,1.09844,
2010-01-15, 02:33:04,VALID,919.567,VALID,0,VALID,94.233,VALID,0,VALID,19.2334,VALID,149,VALID,1.30586,
2010-01-15, 02:34:04,VALID,919.533,VALID,0,VALID,94.1644,VALID,0,VALID,19.2723,VALID,131,VALID,1.4293,
2010-01-15, 02:35:04,VALID,919.516,VALID,0,VALID,94.1034,VALID,0,VALID,19.2723,VALID,145,VALID,1.35156,
2010-01-15, 02:36:04,VALID,919.493,VALID,0,VALID,94.1492,VALID,0.107441,VALID,19.2109,VALID,131,VALID,1.56562,
2010-01-15, 02:37:04,VALID,919.518,VALID,0,VALID,94.3245,VALID,0,VALID,19.1914,VALID,138,VALID,1.52539,
2010-01-15, 02:38:04,VALID,919.494,VALID,0,VALID,94.355,VALID,0.107441,VALID,19.2124,VALID,145,VALID,1.3957,
2010-01-15, 02:39:04,VALID,919.484,VALID,0,VALID,94.416,VALID,0.214882,VALID,19.2109,VALID,145,VALID,1.65391,
2010-01-15, 02:40:04,VALID,919.466,VALID,0,VALID,93.9586,VALID,0.107441,VALID,19.3099,VALID,107,VALID,2.19883,
2010-01-15, 02:41:04,VALID,919.467,VALID,0,VALID,93.5927,VALID,0.107441,VALID,19.3684,VALID,140,VALID,1.23203,
2010-01-15, 02:42:04,VALID,919.476,VALID,0,VALID,93.5546,VALID,0.107441,VALID,19.3879,VALID,162,VALID,1.00078,
2010-01-15, 02:43:04,VALID,919.459,VALID,0,VALID,93.5241,VALID,0.107441,VALID,19.3474,VALID,141,VALID,1.10586,
2010-01-15, 02:44:04,VALID,919.457,VALID,0,VALID,93.7223,VALID,0.107441,VALID,19.3489,VALID,135,VALID,1.68008,
2010-01-15, 02:45:04,VALID,919.451,VALID,0,VALID,93.8443,VALID,0.107441,VALID,19.2889,VALID,137,VALID,1.08711,
2010-01-15, 02:46:04,VALID,919.429,VALID,0,VALID,93.9967,VALID,0.107441,VALID,19.2694,VALID,140,VALID,1.04453,
2010-01-15, 02:47:04,VALID,919.443,VALID,0,VALID,93.951,VALID,0.107441,VALID,19.2709,VALID,152,VALID,0.945313,
2010-01-15, 02:48:04,VALID,919.424,VALID,0,VALID,94.1187,VALID,0.214882,VALID,19.2304,VALID,132,VALID,1.30156,
2010-01-15, 02:49:04,VALID,919.436,VALID,0,VALID,94.1949,VALID,0.107441,VALID,19.2514,VALID,144,VALID,1.55273,
2010-01-15, 02:50:04,VALID,919.442,VALID,0,VALID,94.0653,VALID,0.107441,VALID,19.2709,VALID,127,VALID,1.08125,
2010-01-15, 02:51:04,VALID,919.421,VALID,0,VALID,93.9738,VALID,0.107441,VALID,19.2709,VALID,131,VALID,1.31523,
2010-01-15, 02:52:04,VALID,919.418,VALID,0,VALID,93.9662,VALID,0.107441,VALID,19.2904,VALID,152,VALID,1.81758,
2010-01-15, 02:53:04,VALID,919.404,VALID,0,VALID,93.8747,VALID,0.107441,VALID,19.3099,VALID,143,VALID,0.753125,
2010-01-15, 02:54:04,VALID,919.393,VALID,0,VALID,93.7375,VALID,0.214882,VALID,19.2694,VALID,153,VALID,0.602344,
2010-01-15, 02:55:04,VALID,919.385,VALID,0,VALID,93.7451,VALID,0.107441,VALID,19.2709,VALID,135,VALID,0.931641,
2010-01-15, 02:56:04,VALID,919.371,VALID,0,VALID,94.0348,VALID,0.107441,VALID,19.2499,VALID,157,VALID,1.4832,
2010-01-15, 02:57:04,VALID,919.372,VALID,0,VALID,94.1111,VALID,0.107441,VALID,19.2304,VALID,140,VALID,1.00898,
2010-01-15, 02:58:04,VALID,919.331,VALID,0,VALID,94.1034,VALID,0.107441,VALID,19.2304,VALID,151,VALID,1.21484,
2010-01-15, 02:59:04,VALID,919.308,VALID,0,VALID,94.0806,VALID,0.107441,VALID,19.2514,VALID,141,VALID,1.80234,
2010-01-15, 03:00:04,VALID,919.286,VALID,0,VALID,94.0348,VALID,0.107441,VALID,19.2319,VALID,134,VALID,1.06328,
2010-01-15, 03:01:04,VALID,919.233,VALID,0,VALID,94.1187,VALID,0.107441,VALID,19.2124,VALID,154,VALID,1.20898,
2010-01-15, 03:02:04,VALID,919.223,VALID,0,VALID,94.294,VALID,0.107441,VALID,19.2124,VALID,153,VALID,1.34102,
2010-01-15, 03:03:04,VALID,919.215,VALID,0,VALID,94.1644,VALID,0.107441,VALID,19.1929,VALID,153,VALID,0.444922,
2010-01-15, 03:04:04,VALID,919.201,VALID,0,VALID,94.2635,VALID,0.107441,VALID,19.1929,VALID,153,VALID,0.992188,
2010-01-15, 03:05:04,VALID,919.218,VALID,0,VALID,94.3017,VALID,0.107441,VALID,19.1539,VALID,163,VALID,1.40547,
2010-01-15, 03:06:04,VALID,919.193,VALID,0,VALID,94.416,VALID,0.107441,VALID,19.1344,VALID,163,VALID,0.696875,
2010-01-15, 03:07:04,VALID,919.191,VALID,0,VALID,94.3855,VALID,0.107441,VALID,19.0759,VALID,164,VALID,0.871484,
2010-01-15, 03:08:04,VALID,919.198,VALID,0,VALID,94.4541,VALID,0.107441,VALID,19.0175,VALID,164,VALID,0.564844,
2010-01-15, 03:09:04,VALID,919.176,VALID,0,VALID,94.7438,VALID,0.107441,VALID,18.9785,VALID,174,VALID,0.902344,
2010-01-15, 03:10:04,VALID,919.196,VALID,0,VALID,94.942,VALID,0.107441,VALID,18.9395,VALID,195,VALID,0.8375,
2010-01-15, 03:11:04,VALID,919.223,VALID,0,VALID,95.064,VALID,0.107441,VALID,18.8991,VALID,145,VALID,1.05391,
2010-01-15, 03:12:04,VALID,919.211,VALID,0,VALID,95.2012,VALID,0.107441,VALID,18.9005,VALID,166,VALID,0.839063,
2010-01-15, 03:13:04,VALID,919.211,VALID,0,VALID,95.3156,VALID,0.214882,VALID,18.9005,VALID,156,VALID,0.701563,
2010-01-15, 03:14:04,VALID,919.191,VALID,0,VALID,95.3689,VALID,0.107441,VALID,18.9005,VALID,149,VALID,1.34023,
2010-01-15, 03:15:04,VALID,919.196,VALID,0,VALID,95.4528,VALID,0.107441,VALID,18.9395,VALID,186,VALID,1.0375,
2010-01-15, 03:16:04,VALID,919.208,VALID,0,VALID,95.247,VALID,0.107441,VALID,18.959,VALID,186,VALID,0.592969,
2010-01-15, 03:17:04,VALID,919.183,VALID,0,VALID,95.2775,VALID,0.107441,VALID,18.9395,VALID,155,VALID,1.2125,
2010-01-15, 03:18:04,VALID,919.186,VALID,0,VALID,95.2698,VALID,0.107441,VALID,18.9395,VALID,150,VALID,0.883203,
2010-01-15, 03:19:04,VALID,919.139,VALID,0,VALID,95.4147,VALID,0.107441,VALID,18.938,VALID,142,VALID,1.53711,
2010-01-15, 03:20:04,VALID,919.174,VALID,0,VALID,95.3384,VALID,0.107441,VALID,18.9575,VALID,149,VALID,1.25859,
2010-01-15, 03:21:04,VALID,919.12,VALID,0,VALID,95.2698,VALID,0.107441,VALID,18.9575,VALID,160,VALID,1.12305,
2010-01-15, 03:22:04,VALID,919.168,VALID,0,VALID,95.2698,VALID,0.107441,VALID,18.998,VALID,141,VALID,1.48984,
2010-01-15, 03:23:04,VALID,919.155,VALID,0,VALID,95.1402,VALID,0.107441,VALID,19.0564,VALID,111,VALID,1.16445,
2010-01-15, 03:24:04,VALID,919.149,VALID,0,VALID,94.9496,VALID,0.107441,VALID,19.0759,VALID,131,VALID,1.52852,
2010-01-15, 03:25:04,VALID,919.154,VALID,0,VALID,94.7362,VALID,0.107441,VALID,19.0759,VALID,128,VALID,1.18828,
2010-01-15, 03:26:04,VALID,919.186,VALID,0,VALID,94.8505,VALID,0.107441,VALID,19.1149,VALID,130,VALID,1.79727,
2010-01-15, 03:27:04,VALID,919.176,VALID,0,VALID,94.5837,VALID,0.107441,VALID,19.094,VALID,126,VALID,1.50742,
2010-01-15, 03:28:04,VALID,919.195,VALID,0,VALID,94.5685,VALID,0.107441,VALID,19.0954,VALID,116,VALID,1.77891,
2010-01-15, 03:29:04,VALID,919.172,VALID,0,VALID,94.5609,VALID,0.107441,VALID,19.0759,VALID,102,VALID,1.28086,
2010-01-15, 03:30:04,VALID,919.212,VALID,0,VALID,94.6142,VALID,0.107441,VALID,19.0564,VALID,112,VALID,1.63984,
2010-01-15, 03:31:04,VALID,919.181,VALID,0,VALID,94.7896,VALID,0.107441,VALID,19.0774,VALID,124,VALID,1.7457,
2010-01-15, 03:32:04,VALID,919.165,VALID,0,VALID,94.8963,VALID,0.107441,VALID,19.0564,VALID,123,VALID,1.55586,
2010-01-15, 03:33:04,VALID,919.152,VALID,0,VALID,94.8277,VALID,0.107441,VALID,19.0564,VALID,129,VALID,1.67305,
2010-01-15, 03:34:04,VALID,919.149,VALID,0,VALID,94.8582,VALID,0.214882,VALID,19.0355,VALID,118,VALID,1.475,
2010-01-15, 03:35:04,VALID,919.143,VALID,0,VALID,94.8658,VALID,0.107441,VALID,19.0355,VALID,141,VALID,1.31758,
2010-01-15, 03:36:04,VALID,919.151,VALID,0,VALID,94.8658,VALID,0,VALID,19.0369,VALID,126,VALID,1.74102,
2010-01-15, 03:37:04,VALID,919.146,VALID,0,VALID,94.82,VALID,0,VALID,19.0969,VALID,129,VALID,1.74961,
2010-01-15, 03:38:04,VALID,919.144,VALID,0,VALID,94.6218,VALID,0,VALID,19.0969,VALID,117,VALID,1.80703,
2010-01-15, 03:39:04,VALID,919.144,VALID,0,VALID,94.5532,VALID,0,VALID,19.0954,VALID,129,VALID,1.45859,
2010-01-15, 03:40:04,VALID,919.132,VALID,0,VALID,94.477,VALID,0,VALID,19.1359,VALID,120,VALID,1.38242,
2010-01-15, 03:41:04,VALID,919.158,VALID,0,VALID,94.3017,VALID,0.107441,VALID,19.1344,VALID,116,VALID,1.20234,